Danville, KY

12:10 PM EST on December 13, 2017 (GMT -0500)
Powell

Weather History for KDVK - March, 2013

Change the Weather History Date:

Friday, March 1, 2013

  Actual Average (KLEX) Record (KLEX)
Temperature  
Mean Temperature 34 °F -  
Max Temperature 37 °F 49 °F 73 °F (1976)
Min Temperature 32 °F 30 °F 7 °F (1960)
Degree Days  
Heating Degree Days 30    
Moisture  
Dew Point 32 °F    
Average Humidity 96    
Maximum Humidity 100    
Minimum Humidity 81    
Precipitation  
Precipitation 0.00 in - - ()
Sea Level Pressure  
Sea Level Pressure 29.98 in    
Wind  
Wind Speed 6 mph (NW)    
Max Wind Speed 12 mph    
Max Gust Speed -    
Visibility 6 miles    
Events Rain , Snow    
Averages and records for this station are not official NWS values.
T = Trace of Precipitation, MM = Missing Value Source: NWS Daily Summary

Daily Weather History Graph

Daily Weather History Graph

Search for Another Location

Airport or City:

Trip Planner

Search our weather history database for the weather conditions in past years. The results will help you decide how hot, cold, wet, or windy it might be!

Date:

Astronomy

Mar. 01, 2013 Rise Set
Actual Time 7:10 AM EST 6:33 PM EST
Civil Twilight 6:43 AM EST 6:59 PM EST
Nautical Twilight 6:13 AM EST 7:29 PM EST
Astronomical Twilight 5:43 AM EST 8:00 PM EST
Moon 10:59 PM EST (3/1) 9:02 AM EST (3/1)
Length of Visible Light 12h 15m
Length of Day
11h 23m
Waning Gibbous, 83% of the Moon is Illuminated
Mar 1
Waning Gibbous
Mar 4
Last Quarter
Mar 11
New
Mar 19
First Quarter
Mar 27
Full

Hourly Weather History & Observations

Time (EST) Temp. Windchill Dew Point Humidity Pressure Visibility Wind Dir Wind Speed Gust Speed Precip Events Conditions
12:15 AM 32.0 °F 26.4 °F 32.0 °F 100% 29.97 in 5.0 mi WNW 5.8 mph - N/A Snow Light Snow
12:35 AM 32.0 °F 26.4 °F 32.0 °F 100% 29.96 in 5.0 mi WNW 5.8 mph - N/A Snow Light Snow
12:55 AM 32.0 °F 25.6 °F 32.0 °F 100% 29.96 in 7.0 mi WNW 6.9 mph - N/A   Overcast
1:15 AM 32.0 °F 25.6 °F 32.0 °F 100% 29.96 in 10.0 mi West 6.9 mph - N/A   Overcast
1:35 AM 32.0 °F 24.2 °F 32.0 °F 100% 29.96 in 10.0 mi West 9.2 mph - N/A   Overcast
1:55 AM 32.0 °F 26.4 °F 32.0 °F 100% 29.96 in 10.0 mi WNW 5.8 mph - N/A   Overcast
2:15 AM 32.0 °F 25.6 °F 32.0 °F 100% 29.95 in 7.0 mi WNW 6.9 mph - N/A   Overcast
2:35 AM 32.0 °F 25.6 °F 32.0 °F 100% 29.95 in 5.0 mi WNW 6.9 mph - N/A   Overcast
2:55 AM 32.0 °F 27.5 °F 32.0 °F 100% 29.95 in 4.0 mi NW 4.6 mph - N/A Snow Light Snow
3:15 AM 32.0 °F 26.4 °F 32.0 °F 100% 29.95 in 4.0 mi NW 5.8 mph - N/A Snow Light Snow
3:35 AM 32.0 °F 26.4 °F 32.0 °F 100% 29.95 in 3.0 mi WNW 5.8 mph - N/A Snow Light Snow
3:55 AM 32.0 °F 26.4 °F 32.0 °F 100% 29.94 in 4.0 mi NW 5.8 mph - N/A Snow Light Snow
4:15 AM 32.0 °F 27.5 °F 32.0 °F 100% 29.94 in 5.0 mi WNW 4.6 mph - N/A   Overcast
4:35 AM 32.0 °F 26.4 °F 32.0 °F 100% 29.95 in 5.0 mi WNW 5.8 mph - N/A Snow Light Snow
4:55 AM 32.0 °F 26.4 °F 32.0 °F 100% 29.95 in 5.0 mi WNW 5.8 mph - N/A Snow Light Snow
5:15 AM 32.0 °F 26.4 °F 32.0 °F 100% 29.95 in 4.0 mi WNW 5.8 mph - N/A Snow Light Snow
5:35 AM 32.0 °F 28.7 °F 32.0 °F 100% 29.95 in 4.0 mi WNW 3.5 mph - N/A Snow Light Snow
5:55 AM 32.0 °F 28.7 °F 32.0 °F 100% 29.96 in 3.0 mi NW 3.5 mph - N/A Snow Light Snow
6:15 AM 32.0 °F 28.7 °F 32.0 °F 100% 29.95 in 2.5 mi NW 3.5 mph - N/A Snow Light Snow
6:35 AM 32.0 °F 26.4 °F 32.0 °F 100% 29.95 in 2.5 mi NW 5.8 mph - N/A Snow Light Snow
6:55 AM 32.0 °F 26.4 °F 32.0 °F 100% 29.95 in 5.0 mi NNW 5.8 mph - N/A   Overcast
7:15 AM 32.0 °F 25.6 °F 32.0 °F 100% 29.95 in 5.0 mi NW 6.9 mph - N/A Snow Light Snow
7:35 AM 32.0 °F 25.6 °F 32.0 °F 100% 29.96 in 4.0 mi NW 6.9 mph - N/A Snow Light Snow
8:15 AM 32.0 °F 27.5 °F 32.0 °F 100% 29.98 in 3.0 mi NW 4.6 mph - N/A Snow Light Snow
8:35 AM 32.0 °F 26.4 °F 32.0 °F 100% 29.98 in 2.5 mi NW 5.8 mph - N/A Snow Light Snow
9:15 AM 32.0 °F 25.6 °F 32.0 °F 100% 30.00 in 1.5 mi NNW 6.9 mph - N/A Snow Light Snow
9:35 AM 32.0 °F 26.4 °F 32.0 °F 100% 30.00 in 1.2 mi NNW 5.8 mph - N/A Snow Light Snow
9:55 AM 32.0 °F 25.6 °F 32.0 °F 100% 30.00 in 1.8 mi NNW 6.9 mph - N/A Snow Light Snow
10:15 AM 32.0 °F 26.4 °F 32.0 °F 100% 30.00 in 1.5 mi NW 5.8 mph - N/A Snow Light Snow
10:35 AM 32.0 °F 25.6 °F 32.0 °F 100% 30.00 in 1.0 mi NNW 6.9 mph - N/A Snow Light Snow
11:15 AM 33.8 °F 25.3 °F 32.0 °F 93% 30.00 in 3.0 mi NNW 11.5 mph - N/A Snow Light Snow
11:35 AM 33.8 °F 27.7 °F 32.0 °F 93% 30.01 in 3.0 mi NW 6.9 mph - N/A Snow Light Snow
11:55 AM 33.8 °F 28.6 °F 32.0 °F 93% 30.00 in 3.0 mi NW 5.8 mph - N/A Snow Light Snow
12:15 PM 33.8 °F 28.6 °F 32.0 °F 93% 30.00 in 3.0 mi NW 5.8 mph - N/A Snow Light Snow
12:35 PM 33.8 °F 29.6 °F 32.0 °F 93% 30.00 in 3.0 mi NW 4.6 mph - N/A Snow Light Snow
12:55 PM 35.6 °F 29.2 °F 32.0 °F 87% 30.00 in 7.0 mi NW 8.1 mph - N/A Snow Light Snow
1:15 PM 35.6 °F 29.2 °F 32.0 °F 87% 29.99 in 10.0 mi NW 8.1 mph - N/A   Overcast
1:35 PM 35.6 °F 30.7 °F 32.0 °F 87% 29.98 in 10.0 mi WNW 5.8 mph - N/A   Overcast
1:55 PM 37.4 °F 30.8 °F 32.0 °F 81% 29.98 in 10.0 mi NW 9.2 mph - N/A   Overcast
2:15 PM 37.4 °F 31.4 °F 32.0 °F 81% 29.97 in 7.0 mi NW 8.1 mph - N/A   Overcast
2:35 PM 35.6 °F 28.6 °F 32.0 °F 87% 29.96 in 4.0 mi WNW 9.2 mph - N/A Snow Light Snow
2:55 PM 35.6 °F 29.9 °F 32.0 °F 87% 29.96 in 7.0 mi WNW 6.9 mph - N/A Snow Light Snow
3:15 PM 35.6 °F 29.2 °F 32.0 °F 87% 29.97 in 5.0 mi NNW 8.1 mph - N/A Rain Light Rain
3:35 PM 35.6 °F 29.2 °F 33.8 °F 93% 29.97 in 10.0 mi WNW 8.1 mph - N/A   Overcast
3:55 PM 35.6 °F 29.9 °F 32.0 °F 87% 29.96 in 10.0 mi NW 6.9 mph - N/A Rain Light Rain
4:15 PM 35.6 °F 29.2 °F 32.0 °F 87% 29.96 in 10.0 mi WNW 8.1 mph - N/A   Overcast
4:35 PM 35.6 °F 29.9 °F 32.0 °F 87% 29.96 in 10.0 mi NW 6.9 mph - N/A   Overcast
4:55 PM 35.6 °F 29.2 °F 32.0 °F 87% 29.96 in 10.0 mi NW 8.1 mph - N/A   Overcast
5:15 PM 35.6 °F 29.2 °F 32.0 °F 87% 29.97 in 10.0 mi NNW 8.1 mph - N/A   Overcast
5:35 PM 35.6 °F 28.6 °F 32.0 °F 87% 29.97 in 10.0 mi North 9.2 mph - N/A   Overcast
5:55 PM 35.6 °F 28.6 °F 32.0 °F 87% 29.98 in 10.0 mi North 9.2 mph - N/A   Overcast
6:15 PM 33.8 °F 29.6 °F 32.0 °F 93% 29.99 in 10.0 mi NW 4.6 mph - N/A   Mostly Cloudy
6:35 PM 33.8 °F 28.6 °F 32.0 °F 93% 29.99 in 10.0 mi NNW 5.8 mph - N/A   Mostly Cloudy
6:55 PM 33.8 °F 27.7 °F 32.0 °F 93% 29.99 in 10.0 mi NNW 6.9 mph - N/A   Overcast
7:15 PM 33.8 °F 27.0 °F 32.0 °F 93% 29.99 in 10.0 mi North 8.1 mph - N/A   Overcast
7:35 PM 32.0 °F 25.6 °F 32.0 °F 100% 30.00 in 7.0 mi North 6.9 mph - N/A Rain Light Rain
7:55 PM 32.0 °F 24.8 °F 32.0 °F 100% 30.00 in 5.0 mi North 8.1 mph - N/A Rain Light Rain
8:15 PM 32.0 °F 26.4 °F 32.0 °F 100% 30.00 in 5.0 mi NNW 5.8 mph - N/A Snow Light Snow
8:35 PM 32.0 °F 24.8 °F 32.0 °F 100% 30.00 in 7.0 mi NNW 8.1 mph - N/A Snow Light Snow
8:55 PM 32.0 °F 26.4 °F 32.0 °F 100% 30.01 in 5.0 mi NNW 5.8 mph - N/A Snow Light Snow
9:15 PM 32.0 °F 26.4 °F 32.0 °F 100% 30.01 in 4.0 mi NNW 5.8 mph - N/A Snow Light Snow
9:35 PM 32.0 °F 26.4 °F 32.0 °F 100% 30.00 in 3.0 mi NNW 5.8 mph - N/A Snow Light Snow
9:55 PM 32.0 °F - 32.0 °F 100% 30.01 in 3.0 mi Calm Calm - N/A Snow Light Snow
10:15 PM 32.0 °F 25.6 °F 32.0 °F 100% 30.01 in 3.0 mi NNW 6.9 mph - N/A Snow Light Snow
10:35 PM 32.0 °F 27.5 °F 32.0 °F 100% 30.01 in 3.0 mi NNW 4.6 mph - N/A Snow Light Snow
10:55 PM 32.0 °F 26.4 °F 32.0 °F 100% 30.01 in 4.0 mi NW 5.8 mph - N/A Snow Light Snow
11:15 PM 32.0 °F 27.5 °F 32.0 °F 100% 30.00 in 4.0 mi NW 4.6 mph - N/A Snow Light Snow
11:35 PM 32.0 °F 28.7 °F 32.0 °F 100% 30.00 in 4.0 mi NW 3.5 mph - N/A Snow Light Snow